Location: Casa Balzano
(40.7833°N, 14.4333°E)
Time: 06:01:51
(UTC+00:00)

Daily predictions for brighter satellites

Satellite Brightness Start Highest point End
(mag) Time Altitude Azimuth Time Altitude Azimuth Time Altitude Azimuth
NOSS 2-3 (E) 4.4 16:01:26 10° S 16:04:34 25° ESE 16:07:39 10° ENE
SL-16 R/B 2.8 15:58:34 10° NNE 16:04:47 76° WNW 16:10:56 10° SSW
Gbstr 26 Del rocket 2.9 16:00:41 10° SW 16:04:59 68° SE 16:08:46 10° ENE
Cosmos 773 Rocket 4.0 16:00:28 10° NNW 16:05:41 70° ENE 16:10:54 10° SSE
NOSS 2-3 (D) 4.5 16:02:50 10° S 16:05:57 24° ESE 16:08:57 10° ENE
Cosmos 1867 4.4 16:01:49 10° NNW 16:06:36 30° NE 16:11:20 10° ESE
Cosmos 1606 Rocket 4.5 16:03:01 10° SSE 16:06:47 29° E 16:10:37 10° NNE
SAR-Lupe-4 4.5 16:04:59 10° SE 16:08:02 27° ENE 16:11:05 10° N
Cosmos 1656 4.3 16:03:28 10° SW 16:08:59 60° WNW 16:14:37 10° NNE
COSMO-SKYMED 1 4.4 16:09:13 10° E 16:09:56 10° E 16:10:38 10° E
Meteor 1-20 Rocket 4.4 16:06:51 10° N 16:12:08 48° ENE 16:17:23 10° SSE
Cosmos 990 Rocket 4.5 16:08:38 10° S 16:13:21 39° ESE 16:18:06 10° NE
Cosmos 1782 3.2 16:11:40 10° SSW 16:15:12 59° W 16:18:46 10° N
IRIDIUM 106 4.5 16:10:38 10° N 16:15:45 52° E 16:20:49 10° SSE
Cosmos 1544 Rocket 4.0 16:11:30 10° SSW 16:15:51 65° W 16:20:15 10° N
ARIANE 5 R/B 2.7 16:13:36 10° SE 16:18:26 49° ENE 16:23:21 10° N
Cosmos 1743 2.1 16:16:50 10° N 16:20:05 76° E 16:23:18 10° SSE
Cosmos 2297 Rocket 2.2 16:21:46 10° NNW 16:27:28 81° ENE 16:33:07 10° SSE
MOS 1 Rocket 3.7 16:24:21 10° SE 16:28:56 45° ENE 16:33:48 10° N
IRS-P3 4.4 16:24:23 10° SE 16:29:23 44° ENE 16:34:25 10° N
Cosmos 2208 Rocket 4.4 16:25:55 10° NNW 16:31:03 69° WSW 16:36:13 10° S
Cosmos 1726 Rocket 4.1 16:27:00 10° SSE 16:31:20 40° E 16:35:39 10° NNE
SPOT 1/Viking Rocket 4.2 16:27:20 10° SE 16:31:52 31° ENE 16:36:25 10° N
NOSS 3-2 (C) 3.5 16:28:11 10° SW 16:33:02 62° NW 16:38:48 10° NNE
Okean 1-7 Rocket 3.6 16:29:29 10° N 16:33:49 59° E 16:38:07 10° SSE
EXPRESS MD2 3.5 16:33:44 10° SSW 16:35:54 30° SE 16:37:32 18° E
Cosmos 1602 Rocket 3.7 16:36:14 10° N 16:40:36 77° W 16:44:55 10° S
Cosmos 1900 4.4 16:35:42 10° NNW 16:40:38 54° NE 16:45:27 10° SE
YAOGAN 1 3.5 16:41:24 10° ESE 16:44:50 24° ENE 16:48:16 10° NNE
SKYMED 2 4.0 16:40:54 10° NNE 16:45:01 41° E 16:49:06 10° S
Cosmos 2219 4.4 16:41:19 10° N 16:45:36 21° NE 16:47:22 18° ENE
Cosmos 1655 Rocket 4.2 16:40:39 10° N 16:46:39 48° ENE 16:52:36 10° SSE
Cosmos 783 Rocket 4.4 16:43:32 10° NNW 16:48:51 77° ENE 16:54:07 10° SSE
Cosmos 1980 Rocket 2.6 16:43:35 10° S 16:48:53 43° ESE 16:53:01 16° NE
Meteor 1-25 Rocket 4.2 16:44:19 10° N 16:50:09 79° E 16:55:54 10° SSE
Cosmos-2242 3.8 16:49:44 10° SSE 16:53:21 28° E 16:54:29 24° ENE
Meteor 1-5 Rocket 4.2 16:48:40 10° N 16:53:55 54° ENE 16:59:16 10° SSE
BlueWalker 3 3.7 16:57:11 10° WNW 17:00:26 31° SW 17:03:40 10° SSE
Cosmos 1953 Rocket 3.7 16:59:41 10° N 17:04:02 52° E 17:08:21 10° SSE
Cosmos 2263 Rocket 2.6 16:58:48 10° N 17:04:07 40° ENE 17:09:26 10° SE
SMAP 4.4 17:00:04 10° S 17:04:28 42° W 17:08:55 10° NNW
Cosmos 1607 4.5 17:04:01 10° NW 17:10:10 62° WSW 17:16:22 10° SSE
Cosmos 1933 4.5 17:07:13 10° SSW 17:10:50 41° WNW 17:14:29 10° N
Cosmos 1825 Rocket 3.8 17:09:46 10° NNW 17:14:04 67° W 17:18:20 10° S
CZ-4 R/B 4.2 17:13:08 10° SSE 17:17:04 89° ENE 17:21:02 10° NNW
Spot 4 Rocket 4.0 17:12:26 10° SSE 17:17:25 59° ENE 17:22:27 10° N
Cosmos 2227 Rocket 2.1 17:13:05 10° NNW 17:18:47 90° ENE 17:24:25 10° SSE
CZ-4C R/B 3.3 17:13:53 10° NW 17:21:17 77° WSW 17:30:14 10° SSE
Okean 1 4.1 17:19:47 10° SSE 17:22:00 32° SSE 17:22:00 32° SSE
NOSS 2-3 (C) 3.6 17:20:26 10° SW 17:23:50 51° NW 17:24:49 37° N
Cosmos 1898 Rocket 3.4 17:19:50 10° S 17:24:52 60° ESE 17:26:39 38° NE
COSMOS 2455 3.8 17:20:40 10° SSE 17:25:02 27° ESE 17:25:02 27° ESE
ATLAS CENTAUR R/B 4.3 17:24:56 10° W 17:25:59 11° WSW 17:27:03 10° SW
Cosmos 1697 Rocket 3.9 17:24:37 10° SW 17:29:49 39° WNW 17:35:02 10° N
Cosmos 2058 Rocket 3.0 17:26:10 10° S 17:30:37 85° E 17:32:46 31° N
Cosmos 2084 Rocket 4.4 17:27:11 10° NW 17:31:13 47° WSW 17:35:15 10° SSE
USA 238 DEB 3.5 17:27:14 10° SW 17:33:15 79° NW 17:36:54 28° NNE
USA 238 3.5 17:27:20 10° SW 17:33:22 80° NW 17:36:59 28° NNE
CZ-2D R/B 3.5 17:29:46 10° S 17:33:58 79° W 17:38:09 10° NNW
Meteor 2-2 Rocket 4.1 17:32:01 10° S 17:37:40 78° E 17:41:15 23° NNE
Cosmos 1076 Rocket 4.1 17:33:32 10° NNW 17:37:46 58° W 17:41:59 10° S
Nadezhda 2 Rocket 4.4 17:32:24 10° N 17:38:27 59° E 17:44:26 10° SSE
USA 215 4.4 17:38:19 24° NNE 17:39:17 25° NNE 17:44:22 10° NW
SL-19 R/B 4.0 17:36:01 10° SSE 17:41:19 81° ENE 17:46:55 10° NNW
Cosmos 372 Rocket 4.0 17:37:26 10° SSW 17:42:36 75° WNW 17:44:54 33° N
Meteor 2-10 4.0 17:38:20 10° N 17:43:45 88° W 17:49:19 10° S
Cosmos 1553 Rocket 3.8 17:37:48 10° S 17:43:54 74° E 17:48:28 19° NNE
IRAS Rocket 4.1 17:39:04 10° SSE 17:44:33 84° ENE 17:50:03 10° NNW
Cosmos 1937 Rocket 3.3 17:40:13 10° S 17:45:22 68° ESE 17:45:34 67° E
COSMO-SKYMED 1 2.8 17:44:14 38° NNW 17:45:37 61° WNW 17:49:40 10° SSW
OceanSat 1 rocket 4.5 17:44:02 10° SSE 17:48:48 88° ENE 17:53:32 10° NNW
Aureole 1 Rocket 3.9 17:47:11 10° SW 17:51:17 52° WNW 17:53:31 30° N
Gbstr 26 Del rocket 4.4 17:48:13 10° WNW 17:51:09 24° NNW 17:51:09 24° NNW
Resurs 1-3 4.0 17:50:02 10° S 17:54:16 58° W 17:58:31 10° NNW
Meteor 2-6 Rocket 4.5 17:49:25 10° S 17:53:48 50° SE 17:53:48 50° SE
NOAA 6 4.1 17:58:21 10° S 18:03:28 76° WSW 18:08:34 10° NNW
Cosmos 2237 4.4 17:59:16 10° SSW 18:04:03 59° SSE 18:04:03 59° SSE
Cosmos 2082 4.3 17:59:46 10° NNW 18:03:40 43° N 18:03:40 43° N
SL-16 R/B 4.0 18:07:55 10° S 18:09:27 18° S 18:09:27 18° S
H-2A R/B 3.8 18:15:50 10° SW 18:18:09 24° S 18:18:09 24° S
YAOGAN 1 4.5 18:16:53 10° SSW 18:20:32 28° W 18:24:14 10° NW
Cosmos 2219 3.7 18:24:31 10° NNW 18:29:22 56° WNW 18:29:22 56° WNW
Cosmos 1980 Rocket 3.9 18:28:12 10° WSW 18:33:00 28° NW 18:34:48 24° NNW
BREEZE-M DEB (TANK) 4.0 18:31:59 10° WSW 18:37:39 51° W 18:37:39 51° W
Cosmos 2263 Rocket 3.9 18:43:00 10° NW 18:47:50 29° WSW 18:51:48 14° SSW
